Northern Mariner — WDD2558 — position and weather

sailwx.info

Track history (hours):
 
Tides and Currents Weather Stations Pressure Air Temp Water Temp Dewpoint Dewpoint Depression Visibility Wind Speed Wind Dir Waves Ship Positions

Northern Mariner

Owner: LMW Investmrnts Inc., San Diego, CA. More information available from US FCC via Universal Licensing System and Coast Guard Vessel Documentation Center.

Last reported at 2018-Jun-21 09:14 UTC. Time now 2018-Jun-25 04:29 UTC.
Position N 32°39' W 117°22'.

Length 22 m; draft 3 m.

Type: Towing. MMSI: 367116840.

Date/timePositionNaut miles runAvg speedWind from/ knotsBaromVisibWave heightAir tempDewpointWater temp
2018-Jun-21 09:14N 32°39' W 117°22'1 4.2
2018-Jun-21 08:59N 32°40' W 117°23'2 4.2
2018-Jun-21 08:30N 32°41' W 117°25'2 4.1
2018-Jun-21 08:00N 32°41' W 117°27'2 4.3
2018-Jun-21 07:30N 32°42' W 117°30'2 4.9
2018-Jun-21 07:00N 32°43' W 117°33'2 5.0
2018-Jun-21 06:30N 32°43' W 117°35'3 5.2
2018-Jun-21 06:00N 32°44' W 117°38'3 5.2
2018-Jun-21 05:30N 32°45' W 117°41'2 0.1
2018-Jun-20 04:28N 32°44' W 117°44'3 5.4
2018-Jun-20 03:59N 32°43' W 117°41'7 5.5
2018-Jun-20 02:44N 32°41' W 117°33'1 5.4
2018-Jun-20 02:30N 32°41' W 117°32'3 5.4
2018-Jun-20 02:00N 32°40' W 117°28'  
2018-Jun-14 12:24N 32°42' W 117°10'10 4.0
2018-Jun-14 10:01N 32°38' W 117°20'2 4.9
2018-Jun-14 09:39N 32°39' W 117°22'1 4.8
2018-Jun-14 09:30N 32°39' W 117°23'3 5.7
2018-Jun-14 09:00N 32°40' W 117°26'3 5.7
2018-Jun-14 08:30N 32°41' W 117°30'3 5.6
2018-Jun-14 08:00N 32°42' W 117°33'3 5.4
2018-Jun-14 07:30N 32°42' W 117°36'3 5.5
2018-Jun-14 07:00N 32°43' W 117°39'3 5.4
2018-Jun-14 06:29N 32°44' W 117°42'3 5.6
2018-Jun-14 06:00N 32°45' W 117°45'3 5.8
2018-Jun-14 05:28N 32°47' W 117°48'3 6.2
2018-Jun-14 05:00N 32°48' W 117°52'6 6.3
2018-Jun-14 04:08N 32°50' W 117°57'1 6.8
2018-Jun-14 04:00N 32°51' W 117°58'8 6.3
2018-Jun-14 02:42N 32°54' W 118°07'2 6.4
2018-Jun-14 02:21N 32°55' W 118°10'3 6.3
2018-Jun-14 01:54N 32°56' W 118°13'3 6.3
2018-Jun-14 01:27N 32°57' W 118°16'4 6.2
2018-Jun-14 00:52N 32°58' W 118°20'2 6.0
2018-Jun-14 00:28N 32°59' W 118°23'4 6.1
2018-Jun-13 23:53N 33°00' W 118°27'5 6.0
2018-Jun-13 23:03N 33°01' W 118°33'1 0.1
2018-Jun-13 14:25N 33°01' W 118°33'2 3.7
2018-Jun-13 13:59N 33°00' W 118°32'3 5.1
2018-Jun-13 13:27N 32°59' W 118°29'2 5.0
2018-Jun-13 13:00N 32°57' W 118°27'5 5.1
2018-Jun-13 11:57N 32°54' W 118°22'16 5.0
2018-Jun-13 08:47N 32°48' W 118°04'16 5.2
2018-Jun-13 05:49N 32°44' W 117°46'2 5.4
2018-Jun-13 05:30N 32°43' W 117°45'3 5.6
2018-Jun-13 05:00N 32°43' W 117°41'3 5.7
2018-Jun-13 04:29N 32°42' W 117°38'5 5.9
2018-Jun-13 03:41N 32°41' W 117°32'1 5.7
2018-Jun-13 03:28N 32°41' W 117°31'3 5.7
2018-Jun-13 03:00N 32°40' W 117°28'  
Track history (hours):
 
Tides and Currents Weather Stations Pressure Air Temp Water Temp Dewpoint Dewpoint Depression Visibility Wind Speed Wind Dir Waves Ship Positions

Northern Mariner

Owner: LMW Investmrnts Inc., San Diego, CA. More information available from US FCC via Universal Licensing System and Coast Guard Vessel Documentation Center.

Last reported at 2018-Jun-21 09:14 UTC. Time now 2018-Jun-25 04:29 UTC.
Position N 32°39' W 117°22'.

Length 22 m; draft 3 m.

Type: Towing. MMSI: 367116840.

Date/timePositionNaut miles runAvg speedWind from/ knotsBaromVisibWave heightAir tempDewpointWater temp
2018-Jun-21 09:14N 32°39' W 117°22'1 4.2
2018-Jun-21 08:59N 32°40' W 117°23'2 4.2
2018-Jun-21 08:30N 32°41' W 117°25'2 4.1
2018-Jun-21 08:00N 32°41' W 117°27'2 4.3
2018-Jun-21 07:30N 32°42' W 117°30'2 4.9
2018-Jun-21 07:00N 32°43' W 117°33'2 5.0
2018-Jun-21 06:30N 32°43' W 117°35'3 5.2
2018-Jun-21 06:00N 32°44' W 117°38'3 5.2
2018-Jun-21 05:30N 32°45' W 117°41'2 0.1
2018-Jun-20 04:28N 32°44' W 117°44'3 5.4
2018-Jun-20 03:59N 32°43' W 117°41'7 5.5
2018-Jun-20 02:44N 32°41' W 117°33'1 5.4
2018-Jun-20 02:30N 32°41' W 117°32'3 5.4
2018-Jun-20 02:00N 32°40' W 117°28'  
2018-Jun-14 12:24N 32°42' W 117°10'10 4.0
2018-Jun-14 10:01N 32°38' W 117°20'2 4.9
2018-Jun-14 09:39N 32°39' W 117°22'1 4.8
2018-Jun-14 09:30N 32°39' W 117°23'3 5.7
2018-Jun-14 09:00N 32°40' W 117°26'3 5.7
2018-Jun-14 08:30N 32°41' W 117°30'3 5.6
2018-Jun-14 08:00N 32°42' W 117°33'3 5.4
2018-Jun-14 07:30N 32°42' W 117°36'3 5.5
2018-Jun-14 07:00N 32°43' W 117°39'3 5.4
2018-Jun-14 06:29N 32°44' W 117°42'3 5.6
2018-Jun-14 06:00N 32°45' W 117°45'3 5.8
2018-Jun-14 05:28N 32°47' W 117°48'3 6.2
2018-Jun-14 05:00N 32°48' W 117°52'6 6.3
2018-Jun-14 04:08N 32°50' W 117°57'1 6.8
2018-Jun-14 04:00N 32°51' W 117°58'8 6.3
2018-Jun-14 02:42N 32°54' W 118°07'2 6.4
2018-Jun-14 02:21N 32°55' W 118°10'3 6.3
2018-Jun-14 01:54N 32°56' W 118°13'3 6.3
2018-Jun-14 01:27N 32°57' W 118°16'4 6.2
2018-Jun-14 00:52N 32°58' W 118°20'2 6.0
2018-Jun-14 00:28N 32°59' W 118°23'4 6.1
2018-Jun-13 23:53N 33°00' W 118°27'5 6.0
2018-Jun-13 23:03N 33°01' W 118°33'1 0.1
2018-Jun-13 14:25N 33°01' W 118°33'2 3.7
2018-Jun-13 13:59N 33°00' W 118°32'3 5.1
2018-Jun-13 13:27N 32°59' W 118°29'2 5.0
2018-Jun-13 13:00N 32°57' W 118°27'5 5.1
2018-Jun-13 11:57N 32°54' W 118°22'16 5.0
2018-Jun-13 08:47N 32°48' W 118°04'16 5.2
2018-Jun-13 05:49N 32°44' W 117°46'2 5.4
2018-Jun-13 05:30N 32°43' W 117°45'3 5.6
2018-Jun-13 05:00N 32°43' W 117°41'3 5.7
2018-Jun-13 04:29N 32°42' W 117°38'5 5.9
2018-Jun-13 03:41N 32°41' W 117°32'1 5.7
2018-Jun-13 03:28N 32°41' W 117°31'3 5.7
2018-Jun-13 03:00N 32°40' W 117°28'  

Dump ship's entire track history